Theta_e
357 355 355 347 319 319 313 318 324 323 324 331 323 325 324 329 326 313 341 346 351 352 355 356 362 359 362 361 361 361 361 362 360 360 361 361 360 362 362 362 361 361 360 360 361 361 361 360 359
353 352 349 338 313 308 312 324 322 326 330 331 333 331 328 325 337 336 338 349 352 354 356 355 362 362 362 360 361 360 360 360 359 360 361 362 361 361 363 362 362 361 361 361 359 358 359 359 358
353 353 336 328 314 310 315 325 325 329 333 332 330 334 330 329 337 337 345 351 354 355 355 355 360 363 360 362 362 361 361 362 359 360 360 362 360 363 363 362 362 361 361 361 361 361 360 358 360
349 344 338 317 311 319 324 327 329 329 332 334 331 326 334 340 337 346 350 354 354 354 355 360 362 361 362 361 362 361 360 361 361 359 360 362 361 362 363 362 362 362 360 361 361 360 360 359 359
348 335 317 314 315 321 327 330 332 328 329 330 332 326 328 341 348 350 350 354 352 353 355 357 364 363 362 362 361 361 361 361 362 360 361 361 361 363 363 362 362 362 362 362 362 360 358 358 357
331 327 312 310 317 324 328 333 331 329 330 330 328 326 330 345 346 349 351 351 354 354 355 356 361 362 361 362 361 360 361 361 362 361 362 363 363 363 363 363 363 362 362 361 361 360 359 358 357
327 319 314 315 318 322 327 333 328 328 328 329 333 325 331 340 346 348 350 352 354 355 355 355 356 358 361 362 361 361 361 361 362 362 363 362 363 364 363 362 363 362 362 362 360 360 358 358 357
333 323 318 318 317 320 329 331 334 331 328 337 336 324 328 338 346 348 351 349 352 353 354 353 353 355 356 356 362 362 362 363 363 363 362 362 363 363 364 364 365 363 362 361 360 359 358 358 357
338 319 315 316 319 324 331 329 335 336 331 333 334 334 337 343 346 346 346 346 348 351 349 350 351 352 353 355 358 362 363 363 363 362 363 359 355 357 357 360 360 362 361 361 360 359 357 358 359
326 317 319 327 325 325 329 330 332 329 329 329 330 336 340 343 343 341 342 342 343 347 348 350 349 349 351 356 354 354 358 353 353 353 353 353 354 356 356 357 358 360 359 359 360 360 359 351 349
326 317 325 326 330 332 330 330 334 327 323 328 326 330 337 340 340 340 340 341 342 347 349 349 348 349 350 352 351 352 353 353 352 351 349 352 351 351 354 353 352 352 356 353 353 349 346 344 346
321 326 326 328 332 331 330 330 330 331 331 335 333 334 337 337 337 338 337 338 341 346 347 348 348 346 346 349 350 351 350 351 349 351 346 348 347 346 350 352 351 351 349 348 349 346 342 343 346
323 326 328 331 331 330 334 330 330 329 334 335 335 336 335 337 337 339 338 337 340 343 345 344 346 343 343 348 349 348 348 350 351 350 349 348 348 345 351 351 349 347 346 347 347 345 343 341 343
327 328 327 330 332 332 330 330 331 330 334 332 332 333 334 335 336 338 335 334 336 341 340 342 343 342 344 344 346 346 346 348 350 350 349 349 349 346 349 347 348 346 342 347 347 348 345 343 343
327 320 325 327 332 331 332 325 325 331 331 326 326 330 331 335 336 336 337 336 334 336 337 340 342 343 343 344 347 348 346 347 349 350 349 349 349 346 345 346 346 347 343 344 345 345 346 343 342
319 320 315 326 329 331 324 315 326 329 325 320 323 326 327 329 333 336 338 339 340 338 337 341 345 344 344 345 347 347 346 348 347 350 349 349 349 347 343 345 346 346 342 345 347 346 342 342 341
311 305 312 320 329 327 323 318 328 330 324 319 320 322 325 327 328 334 337 340 338 339 339 340 344 344 345 345 346 347 349 350 350 351 349 348 349 348 344 344 345 345 347 348 348 345 344 342 341
304 307 309 314 321 324 321 320 327 328 324 320 319 320 321 322 324 329 333 334 336 336 338 340 343 344 345 343 343 344 342 345 352 353 350 348 348 350 347 345 346 347 346 344 346 346 345 344 343
311 307 306 314 321 321 319 321 325 327 325 321 318 318 319 320 324 327 332 334 334 333 335 334 340 341 343 342 340 339 337 341 349 351 353 350 349 350 348 346 345 345 344 344 344 347 346 344 344
310 306 305 314 319 320 319 319 325 327 326 324 321 319 321 321 321 324 327 331 332 333 336 332 338 339 343 343 341 339 337 343 348 351 354 352 350 351 349 346 344 345 343 342 343 345 343 343 344
305 305 306 309 320 320 318 313 318 325 328 327 327 325 324 323 321 323 324 327 331 332 336 335 336 340 343 344 343 344 346 346 345 348 351 352 351 351 350 347 346 344 343 341 343 344 342 341 342
296 308 311 317 312 307 315 301 311 318 322 325 326 326 326 326 325 324 325 326 328 332 337 337 339 340 342 343 341 340 338 339 343 344 349 352 352 350 351 349 347 346 344 342 344 344 345 342 340
299 310 313 316 310 310 311 305 307 316 316 320 324 326 328 329 329 326 326 327 330 332 336 337 341 342 341 342 341 339 337 340 343 344 347 350 349 351 351 351 349 348 346 345 345 346 345 346 345
307 310 306 300 306 301 305 306 304 310 316 320 325 327 329 330 331 330 329 328 328 332 334 335 336 341 340 341 341 339 337 338 341 343 343 346 348 346 348 347 345 347 349 348 347 346 346 345 347
301 294 291 292 297 298 297 303 308 310 317 322 324 326 328 330 331 331 326 326 327 329 332 334 333 334 337 340 340 340 339 339 340 342 344 344 344 343 343 341 339 341 343 346 349 349 348 347 346
296 295 291 286 288 292 300 299 306 315 318 320 323 327 329 329 330 330 329 328 328 330 331 333 332 332 331 334 338 340 339 339 340 343 345 345 342 342 341 341 342 342 343 345 346 349 349 348 345
296 294 297 294 296 296 299 303 309 314 317 320 324 326 328 330 330 330 329 330 330 330 331 333 332 332 332 332 332 332 337 340 341 343 346 344 345 342 342 342 342 342 343 343 344 345 345 348 348
302 300 295 294 292 291 295 298 301 307 312 318 322 323 326 330 332 333 331 328 329 331 332 334 334 332 333 333 333 333 335 340 343 345 346 346 346 345 345 347 347 345 344 345 346 346 348 346 347
300 297 292 295 295 292 291 296 304 309 313 317 321 323 326 330 331 334 334 335 336 335 335 334 334 334 334 334 335 336 337 341 343 343 344 347 349 349 348 349 349 349 347 345 344 345 348 346 346
300 297 292 291 293 294 293 296 310 311 314 319 319 320 323 330 331 332 330 330 330 333 335 337 336 335 336 337 337 337 339 341 342 343 348 349 348 352 351 353 352 350 348 348 345 345 347 346 345
Wind_Speed
2 2 1 1 3 1 0 1 2 7 4 1 13 2 5 4 1 3 5 6 13 10 6 8 11 12 11 12 12 11 11 13 12 12 13 13 13 11 14 13 14 13 14 16 16 15 15 17 15
4 1 1 1 3 2 3 3 5 3 4 12 7 4 5 3 3 10 6 9 13 10 6 6 11 11 11 11 11 11 11 11 11 11 12 13 13 12 13 13 14 14 14 16 16 15 15 15 16
5 2 1 1 2 2 2 2 8 9 4 3 5 5 3 3 8 9 8 13 11 8 7 7 11 10 10 9 10 9 10 11 11 11 11 12 13 11 13 14 12 15 14 13 14 14 13 15 13
2 1 0 3 2 2 2 6 12 7 5 7 8 8 4 4 6 5 12 14 11 7 6 10 10 10 9 9 9 9 8 9 12 11 11 12 12 12 14 13 12 13 13 13 13 13 13 12 12
1 2 2 2 2 2 4 10 4 3 5 5 0 4 6 3 13 13 12 12 12 7 5 7 10 10 8 8 8 10 10 11 11 12 12 13 12 14 13 13 12 13 12 13 12 14 12 12 9
3 2 3 3 4 3 3 6 5 3 5 10 9 9 4 11 15 12 10 10 9 9 6 5 9 9 8 8 7 7 12 13 12 13 12 12 13 14 14 13 12 12 12 13 12 10 9 9 6
5 3 1 2 2 2 4 7 5 4 5 4 9 6 3 10 11 11 10 9 7 7 6 4 5 7 7 7 7 9 14 14 13 13 12 12 13 14 13 12 13 11 12 12 11 10 8 8 5
3 3 3 2 0 2 6 7 8 6 4 10 6 7 8 10 12 12 10 7 6 5 5 5 4 3 3 3 8 11 14 13 12 11 10 10 10 11 11 10 10 10 11 10 10 9 7 7 5
4 4 1 1 1 1 8 5 3 8 10 2 3 5 13 18 16 13 10 7 5 5 4 4 4 3 3 2 5 9 11 11 11 10 9 5 2 3 6 6 7 10 9 10 10 9 8 8 9
4 3 3 2 5 4 9 7 8 6 9 4 9 16 20 18 16 15 12 9 7 7 4 3 4 4 3 1 5 4 4 4 4 5 4 3 3 3 3 4 8 8 9 9 10 10 10 7 4
2 2 0 2 6 4 8 5 3 11 4 5 19 20 19 18 16 15 14 14 13 8 5 5 4 3 3 2 3 2 2 2 3 4 3 3 3 3 2 2 3 3 7 3 6 5 3 4 3
1 7 7 5 4 5 4 3 5 3 2 13 17 22 20 20 16 15 12 8 9 9 6 5 4 4 3 2 2 2 2 2 2 3 2 2 2 2 2 2 3 3 2 4 4 2 3 4 4
2 3 5 8 7 1 6 6 6 4 9 17 18 17 16 14 13 10 10 9 9 8 7 5 5 4 2 3 3 2 3 2 2 2 2 2 2 2 1 2 3 3 2 2 3 3 2 2 3
6 7 8 5 4 7 9 3 2 5 13 17 18 18 16 14 13 10 9 8 10 8 7 6 5 4 4 4 3 3 2 3 3 3 4 4 2 2 2 2 2 3 3 2 2 3 3 1 0
3 4 2 3 4 5 7 5 5 8 14 14 13 14 13 14 11 12 13 11 12 8 6 6 5 5 6 5 4 3 3 4 4 4 5 4 4 4 4 3 2 2 2 4 2 2 2 2 1
1 2 3 3 7 5 6 1 5 6 12 11 13 12 13 12 14 10 10 12 7 7 8 7 7 6 6 5 4 3 3 3 4 4 4 5 5 5 4 3 3 2 3 2 1 2 3 3 3
6 2 2 3 3 5 3 2 7 5 8 10 9 9 10 11 9 13 12 11 10 9 8 7 6 7 6 4 4 3 3 1 3 3 3 5 5 5 3 3 3 3 2 3 2 1 2 3 3
2 2 2 3 6 3 4 3 9 7 8 9 9 8 9 9 8 9 11 9 8 8 7 6 4 6 6 4 2 0 2 2 2 3 4 5 4 5 4 3 3 3 3 3 2 2 1 1 3
4 2 3 1 2 5 4 7 11 8 6 7 7 8 10 9 6 7 9 10 10 8 9 8 8 7 5 2 2 1 3 2 2 3 4 5 4 3 3 2 3 3 3 3 3 2 3 2 3
6 5 7 3 2 6 3 3 7 11 9 10 12 11 13 8 8 8 7 8 11 12 11 8 9 7 7 3 2 2 2 3 1 1 3 4 5 4 4 4 4 4 2 3 4 3 1 2 4
5 8 6 5 6 7 6 0 6 8 7 9 10 10 10 13 14 14 13 13 11 11 10 9 10 10 7 6 2 2 1 1 1 1 2 3 6 7 6 6 5 5 4 4 4 4 5 3 3
3 12 8 9 6 4 2 5 6 8 12 12 13 13 13 13 12 13 16 15 14 12 10 10 10 11 7 8 5 6 4 4 3 2 3 2 6 7 6 7 7 7 5 6 5 4 4 4 4
2 7 6 4 5 5 1 3 5 7 9 14 16 16 16 15 14 15 14 14 11 12 11 12 11 9 8 9 7 5 5 3 1 2 2 2 3 5 6 5 7 6 4 4 5 4 5 4 2
8 9 9 5 3 3 3 5 6 7 10 8 13 14 15 15 14 12 11 9 9 7 8 9 10 9 8 10 10 9 8 6 3 3 3 3 1 3 5 5 4 4 4 4 4 6 7 6 5
8 8 5 5 4 7 0 4 11 3 6 7 12 12 14 15 14 13 13 12 10 11 11 10 9 10 8 10 8 8 9 6 6 6 4 3 2 3 6 5 3 3 4 4 5 6 6 6 7
7 9 8 5 4 3 4 5 8 4 6 4 3 6 12 14 14 17 16 16 15 15 13 13 11 12 9 10 10 6 7 5 4 5 3 4 4 5 3 3 4 5 5 5 4 5 5 6 6
5 4 5 9 3 3 3 8 10 5 4 4 4 6 14 14 15 16 15 16 15 14 15 14 11 12 10 12 7 7 6 5 4 5 4 5 5 5 6 6 6 7 8 7 6 5 7 7 6
3 6 4 4 5 3 4 6 8 3 6 5 6 7 7 7 10 12 14 14 13 13 14 13 12 14 12 10 9 8 8 8 7 4 6 7 8 6 6 6 5 5 6 6 6 6 6 7 5
2 2 7 7 5 6 1 9 7 9 10 11 10 8 9 8 5 5 7 9 9 9 11 13 12 12 10 10 9 9 7 7 5 5 6 10 8 8 9 7 6 7 5 5 7 6 6 8 6
3 4 6 7 4 2 3 8 2 4 5 5 5 6 3 2 6 7 6 7 7 8 8 11 12 12 12 11 8 10 8 6 5 6 8 6 10 8 9 6 6 7 7 7 7 8 7 7 7
Wind_Direction
154 108 58 304 48 30 339 308 76 103 110 237 149 149 144 45 85 177 120 136 128 143 147 147 144 140 136 130 133 135 129 127 125 122 126 126 124 125 117 116 110 109 110 110 111 119 117 114 121
126 128 21 322 73 45 295 351 79 54 107 100 87 73 52 88 91 125 116 143 134 141 131 137 141 144 131 134 138 139 139 134 132 127 125 127 125 136 127 120 115 115 116 114 114 113 118 122 126
140 350 11 60 124 197 150 86 112 117 81 96 108 59 66 62 111 133 122 129 125 121 122 145 153 143 143 148 144 147 147 142 138 131 129 129 133 137 130 119 123 121 117 111 118 118 121 127 127
154 112 47 146 238 226 86 97 131 117 62 40 102 72 74 130 131 124 132 124 119 116 126 148 153 151 157 146 144 136 148 149 146 138 133 128 136 137 132 126 122 120 126 124 125 124 121 124 126
80 67 13 305 315 115 153 189 144 93 86 82 62 84 107 40 112 123 130 126 127 127 140 143 157 155 154 151 152 147 152 155 153 144 143 140 141 137 134 129 122 125 127 125 119 120 124 125 131
76 82 40 8 351 83 82 168 127 95 90 123 96 107 117 136 127 133 125 128 135 140 137 149 163 148 157 162 148 154 157 158 151 148 140 146 139 136 138 135 135 133 130 127 127 125 124 119 123
110 106 144 290 23 75 169 149 131 113 114 107 134 94 101 149 133 121 125 124 122 126 123 135 138 159 165 140 138 123 142 151 153 144 141 137 140 138 141 141 134 138 133 129 133 133 133 118 98
113 103 45 319 59 252 154 143 132 117 86 116 139 150 159 159 133 120 119 104 111 102 117 139 109 114 105 131 123 118 131 143 140 137 129 134 137 141 139 140 141 137 130 131 135 135 127 111 100
143 70 50 218 162 348 139 125 102 91 128 137 102 130 132 142 126 127 129 113 104 108 100 127 134 131 118 133 137 116 120 125 129 127 135 101 52 121 121 144 129 125 123 129 132 126 115 95 96
64 79 240 219 286 246 161 130 131 112 146 66 84 108 128 135 139 143 149 148 151 155 147 148 147 168 151 112 83 77 84 68 60 65 80 89 81 87 64 137 146 133 127 129 128 119 91 76 53
46 213 328 292 307 150 148 117 107 126 205 179 149 143 143 143 148 156 161 170 172 165 164 167 172 183 159 118 114 110 100 95 83 88 91 99 81 62 79 64 79 60 81 49 68 82 76 78 65
309 248 257 298 333 37 105 83 78 83 258 144 154 151 151 154 162 163 160 158 156 168 172 168 176 183 170 153 119 124 114 119 121 129 137 104 97 74 92 98 96 82 67 90 90 82 104 92 84
240 274 266 236 270 251 72 50 88 40 105 130 135 145 148 158 157 155 157 162 159 172 174 181 178 189 161 174 139 160 154 149 143 159 202 173 174 179 143 147 118 120 117 108 97 104 93 89 84
203 254 270 289 98 127 117 129 84 65 125 131 144 146 158 162 157 139 152 164 176 173 177 183 180 179 171 186 172 206 193 176 180 189 204 199 190 195 172 150 142 130 138 128 116 112 132 188 354
228 325 64 73 81 99 124 39 49 125 129 129 139 147 151 157 149 166 172 173 177 181 165 173 169 183 193 198 194 214 214 186 211 194 198 190 183 186 172 172 193 163 165 142 136 129 122 175 206
39 75 93 157 125 164 84 209 142 138 132 132 144 153 147 158 161 165 183 177 157 149 172 170 190 183 205 195 208 199 233 202 214 196 183 199 186 195 171 177 200 159 140 169 235 128 156 173 177
33 38 43 119 136 132 88 164 155 160 141 140 150 156 153 154 154 173 180 175 158 166 170 170 185 175 191 179 203 189 221 255 211 179 177 203 197 170 184 199 196 183 174 171 163 145 156 169 166
324 23 274 208 204 138 120 125 149 162 152 156 159 158 166 164 176 174 175 158 158 167 175 171 173 169 160 155 144 355 300 267 193 200 185 189 207 194 178 193 202 188 165 182 150 159 211 143 155
318 303 232 240 202 111 170 140 166 167 150 160 175 180 185 176 184 180 178 170 172 173 183 173 169 179 158 146 176 204 230 240 230 221 203 181 190 220 188 177 190 209 203 191 176 198 169 171 172
213 250 269 312 156 93 122 140 174 178 192 188 183 190 196 171 171 194 191 184 182 184 192 165 182 180 190 160 183 161 185 223 242 208 210 167 186 192 193 183 194 200 201 219 193 171 180 171 187
236 202 202 181 119 61 125 109 172 197 185 182 202 204 198 190 190 189 199 193 196 195 182 178 188 194 194 172 151 125 241 39 280 239 212 200 175 196 202 188 189 198 187 212 207 176 193 185 187
277 194 173 160 124 176 173 260 220 187 199 193 199 197 203 201 202 197 196 202 201 201 187 170 189 197 192 169 177 184 196 201 229 201 186 190 197 202 197 197 196 195 195 202 210 193 184 159 168
278 134 138 87 85 95 241 56 266 145 210 210 202 201 203 202 201 203 198 200 206 198 183 181 187 194 183 183 186 188 216 216 216 255 225 200 201 202 207 203 203 203 196 212 199 210 218 200 166
132 73 54 60 78 350 241 132 270 188 207 199 208 203 201 198 202 205 206 194 199 182 185 183 178 189 183 183 192 194 207 222 223 243 253 261 205 203 205 207 195 177 193 201 214 215 221 226 226
72 65 19 17 10 228 177 145 251 216 229 186 198 198 199 197 190 193 182 188 191 183 184 191 188 201 197 199 200 200 212 218 223 233 225 237 258 233 212 201 227 211 210 221 203 205 215 208 217
182 156 157 175 198 254 130 233 257 231 127 133 208 218 182 193 189 191 190 191 191 189 184 185 190 208 202 206 208 203 208 208 218 227 233 245 238 247 148 178 192 215 206 222 224 241 233 204 215
180 166 171 99 52 79 248 291 294 164 148 138 162 181 181 192 189 190 187 191 190 191 195 192 189 204 205 215 213 213 210 206 204 231 224 244 248 250 257 202 192 214 210 207 191 214 232 230 213
144 149 74 18 134 225 295 277 240 226 201 181 182 190 185 184 199 193 192 187 190 189 191 189 189 194 194 195 201 211 202 192 201 198 233 230 250 247 249 262 262 215 207 227 220 224 218 220 227
50 44 49 111 111 156 195 265 207 216 195 195 201 195 175 163 177 170 176 181 183 185 185 190 193 192 190 195 200 204 202 211 185 207 239 249 243 235 245 236 230 242 236 203 224 231 223 218 222
283 124 139 120 211 89 135 274 330 243 182 170 195 92 75 90 128 150 154 141 157 181 192 192 194 192 193 196 186 202 198 195 194 228 237 228 247 239 237 231 235 226 223 215 220 228 227 220 224